(182806) = 2002 AD108

Discovered at Socorro on 2002-01-09 by LINEAR.

Orbit

Orbit type: Main Belt

Note: WebGL enabled browser required.

epoch2024-03-31.0
epoch JD2460400.5
perihelion date2023-10-20.33303
perihelion JD2460237.83303
argument of perihelion (°)359.21320
ascending node (°)118.01731
inclination (°)10.17305
eccentricity0.1505840
perihelion distance (AU)2.6349488
Tisserand w.r.t. Jupiter3.2
ΔV w.r.t. Earth (km/sec)10.6
semimajor axis (AU)3.1020712
mean anomaly (°)29.34442
mean daily motion (°/day)0.18039570
aphelion distance (AU)3.569
period (years)5.46
P-vector [x]-0.45776213
P-vector [y]0.81667180
P-vector [z]0.35142709
Q-vector [x]-0.87529534
Q-vector [y]-0.48328835
Q-vector [z]-0.01704221
absolute magnitude15.61
phase slope0.15
uncertainty0
referenceMPEC 2024-F28
observations used446
oppositions14
arc length (days)8130
first opposition used2001
last opposition used2024
residual rms (arc-secs)0.73
perturbers coarse indicatorM-v
perturbers precise indicator003Ek
first observation date used2001-12-14.0
last observation date used2024-03-18.0
computer nameMPCLINUX
JD of orbit computation2456847.754677
perihelion JD uncertainty (days)1.2914E-04
argument of perihelion uncertainty (°)3.9806E-05
ascending node uncertainty (°)2.8688E-05
inclination uncertainty (°)6.3292E-06
eccentricity uncertainty 5.5563E-08
perihelion distance uncertainty (AU)1.6818E-07
Minimum Orbit Intersection Distances (in AU)
for orbit epoch: 2460400.5, reference: E2024-F28
Mercury2.31158
Venus1.91715
Earth1.65167
Mars0.99473
Jupiter1.53088
Saturn6.28472
Uranus15.6304
Neptune26.5765

Observations

445 total observations over interval: 2001 12 14.45488 – 2024 03 18.125847
These data are available for download (format description).

Date (UT) J2000 RA J2000 Dec Magn Location Ref
2001 12 14.45488 08 55 44.52 +16 21 22.6 19.8   704 – Lincoln Laboratory ETS, New Mexico MPS 47451
2001 12 14.47024 08 55 44.42 +16 21 25.1 20.0   704 – Lincoln Laboratory ETS, New Mexico MPS 47451
2001 12 14.50094 08 55 44.40 +16 21 32.9 20.3   704 – Lincoln Laboratory ETS, New Mexico MPS 47451
2001 12 14.51628 08 55 44.32 +16 21 36.2 19.9   704 – Lincoln Laboratory ETS, New Mexico MPS 47451
2002 01 09.33610 08 46 43.79 +18 46 38.3 19.5   704 – Lincoln Laboratory ETS, New Mexico MPS 47451
2002 01 09.35125 08 46 43.13 +18 46 44.4 19.7   704 – Lincoln Laboratory ETS, New Mexico MPS 47451
2002 01 09.36642 08 46 42.50 +18 46 50.8 19.8   704 – Lincoln Laboratory ETS, New Mexico MPS 47451
2002 01 09.38160 08 46 41.93 +18 46 57.8 19.7   704 – Lincoln Laboratory ETS, New Mexico MPS 47451
2002 01 09.39691 08 46 41.35 +18 47 03.9 19.9   704 – Lincoln Laboratory ETS, New Mexico MPS 47451
2002 01 11.26571 08 45 26.15 +19 00 33.0 18.9 R 699 – Lowell Observatory-LONEOS MPS 47451
2002 01 11.26853 08 45 26.00 +19 00 34.0 19.5 V 333 – Desert Eagle Observatory MPS 47451
2002 01 11.28347 08 45 25.32 +19 00 41.1 19.5 V 333 – Desert Eagle Observatory MPS 47451
2002 01 11.29423 08 45 24.92 +19 00 46.3   699 – Lowell Observatory-LONEOS MPS 47451
2002 01 11.29861 08 45 24.69 +19 00 47.8 19.2 V 333 – Desert Eagle Observatory MPS 47451
2002 01 11.32249 08 45 23.65 +19 00 58.6   699 – Lowell Observatory-LONEOS MPS 47451
2002 01 11.36717 08 45 21.72 +19 01 18.4   699 – Lowell Observatory-LONEOS MPS 47451
2002 01 14.31466 08 43 15.50 +19 23 03.2 19.0   704 – Lincoln Laboratory ETS, New Mexico MPS 47451
2002 01 14.32976 08 43 14.81 +19 23 10.0 19.4   704 – Lincoln Laboratory ETS, New Mexico MPS 47451
2002 01 14.34520 08 43 14.11 +19 23 16.6 19.2   704 – Lincoln Laboratory ETS, New Mexico MPS 47451
2002 01 14.36221 08 43 13.33 +19 23 24.3 19.2   704 – Lincoln Laboratory ETS, New Mexico MPS 47451
2002 01 14.37739 08 43 12.63 +19 23 31.0 19.0   704 – Lincoln Laboratory ETS, New Mexico MPS 47451
2002 01 21.23646 08 37 52.34 +20 15 17.4 18.6   704 – Lincoln Laboratory ETS, New Mexico MPS 49937
2002 01 21.26607 08 37 50.84 +20 15 31.6 19.3   704 – Lincoln Laboratory ETS, New Mexico MPS 49937
2002 01 21.28097 08 37 50.09 +20 15 37.4 18.8   704 – Lincoln Laboratory ETS, New Mexico MPS 49937
2002 01 21.29578 08 37 49.35 +20 15 44.5 18.9   704 – Lincoln Laboratory ETS, New Mexico MPS 49937
2002 01 26.32141 08 33 41.29 +20 53 36.8 19.2   644 – Palomar Mountain/NEAT MPS 47451
2002 01 26.34281 08 33 40.15 +20 53 46.5 19.8   644 – Palomar Mountain/NEAT MPS 47451
2002 01 26.36387 08 33 39.07 +20 53 56.0 19.5   644 – Palomar Mountain/NEAT MPS 47451
2002 02 03.23674 08 27 11.64 +21 50 47.1 18.4 R 699 – Lowell Observatory-LONEOS MPS 49937
2002 02 03.26013 08 27 10.48 +21 50 57.1   699 – Lowell Observatory-LONEOS MPS 49937
2002 02 03.28355 08 27 09.32 +21 51 06.0   699 – Lowell Observatory-LONEOS MPS 49937
2002 02 03.30700 08 27 08.19 +21 51 17.5   699 – Lowell Observatory-LONEOS MPS 49937
2002 02 07.24086 08 24 04.12 +22 17 46.2 19.3   704 – Lincoln Laboratory ETS, New Mexico MPS 49937
2002 02 07.25538 08 24 03.41 +22 17 51.7 19.4   704 – Lincoln Laboratory ETS, New Mexico MPS 49937
2002 02 07.26966 08 24 02.73 +22 17 57.6 19.6   704 – Lincoln Laboratory ETS, New Mexico MPS 49937
2002 02 07.28633 08 24 01.92 +22 18 04.0 19.5   704 – Lincoln Laboratory ETS, New Mexico MPS 49937
2002 02 07.30789 08 24 00.88 +22 18 13.3 19.7   704 – Lincoln Laboratory ETS, New Mexico MPS 49937
2002 02 10.17174 08 21 54.54 +22 36 25.1 19.7   704 – Lincoln Laboratory ETS, New Mexico MPS 49937
2002 02 10.18583 08 21 53.87 +22 36 30.5 19.5   704 – Lincoln Laboratory ETS, New Mexico MPS 49937
2002 02 10.19993 08 21 53.27 +22 36 35.8 19.4   704 – Lincoln Laboratory ETS, New Mexico MPS 49937
2002 02 10.21421 08 21 52.63 +22 36 41.2 19.3   704 – Lincoln Laboratory ETS, New Mexico MPS 49937
2002 02 10.22832 08 21 52.00 +22 36 46.0 19.3   704 – Lincoln Laboratory ETS, New Mexico MPS 49937
2002 02 12.16997 08 20 30.77 +22 48 33.3 19.0   704 – Lincoln Laboratory ETS, New Mexico MPS 49937
2002 02 12.18402 08 20 30.16 +22 48 38.8 19.1   704 – Lincoln Laboratory ETS, New Mexico MPS 49937
2002 02 12.19808 08 20 29.58 +22 48 43.7 19.2   704 – Lincoln Laboratory ETS, New Mexico MPS 49937
2002 02 12.21214 08 20 28.95 +22 48 47.9 19.4   704 – Lincoln Laboratory ETS, New Mexico MPS 49937
2002 02 12.22620 08 20 28.40 +22 48 53.7 19.5   704 – Lincoln Laboratory ETS, New Mexico MPS 49937
2002 02 20.17470 08 15 42.26 +23 31 53.0 19.1   704 – Lincoln Laboratory ETS, New Mexico MPS 52501
2002 02 20.18834 08 15 41.79 +23 31 56.6 19.2   704 – Lincoln Laboratory ETS, New Mexico MPS 52501
2002 02 20.20198 08 15 41.38 +23 32 01.1 19.8   704 – Lincoln Laboratory ETS, New Mexico MPS 52501
2002 02 20.21572 08 15 40.91 +23 32 05.0 19.4   704 – Lincoln Laboratory ETS, New Mexico MPS 52501
2002 02 20.22938 08 15 40.49 +23 32 08.7 19.4   704 – Lincoln Laboratory ETS, New Mexico MPS 52501
2005 08 27.37645 23 33 36.75 -14 08 02.3 20.3   644 – Palomar Mountain/NEAT MPS 202305
2005 08 27.40162 23 33 35.74 -14 08 12.4 20.2   644 – Palomar Mountain/NEAT MPS 202305
2005 08 27.42828 23 33 34.72 -14 08 23.3 20.2   644 – Palomar Mountain/NEAT MPS 202305
2006 11 25.30768 05 03 29.91 +10 54 26.3 18.6 V G96 – Mt. Lemmon Survey MPS 191938
2006 11 25.31583 05 03 29.48 +10 54 26.4 19.3 V G96 – Mt. Lemmon Survey MPS 191938
2006 11 25.32405 05 03 29.05 +10 54 26.4 19.3 V G96 – Mt. Lemmon Survey MPS 191938
2006 11 25.33234 05 03 28.62 +10 54 26.6 19.1 V G96 – Mt. Lemmon Survey MPS 191938
2006 11 25.39918 05 03 25.27 +10 54 27.7 19.3 V 703 – Catalina Sky Survey MPS 191938
2006 11 25.40424 05 03 24.98 +10 54 29.0 19.6 V 703 – Catalina Sky Survey MPS 191938
2006 11 25.40928 05 03 24.69 +10 54 27.4 19.6 V 703 – Catalina Sky Survey MPS 191938
2006 11 25.41434 05 03 24.51 +10 54 27.8 19.7 V 703 – Catalina Sky Survey MPS 191938
2006 11 28.27960 05 01 02.40 +10 55 15.7 19.6   704 – Lincoln Laboratory ETS, New Mexico MPS 191938
2006 11 28.29257 05 01 01.72 +10 55 16.5 19.5   704 – Lincoln Laboratory ETS, New Mexico MPS 191938
2006 11 28.30555 05 01 01.02 +10 55 16.7 19.4   704 – Lincoln Laboratory ETS, New Mexico MPS 191938
2006 11 28.31855 05 01 00.37 +10 55 16.1 19.7   704 – Lincoln Laboratory ETS, New Mexico MPS 191938
2006 12 12.34320 04 48 39.26 +11 11 23.5 19.0 R 644 – Palomar Mountain/NEAT MPS 191938
2006 12 12.36425 04 48 38.12 +11 11 25.7 19.6 R 644 – Palomar Mountain/NEAT MPS 191938
2006 12 12.38521 04 48 36.95 +11 11 28.2 19.0 R 644 – Palomar Mountain/NEAT MPS 191938
2006 12 20.32513 04 41 51.58 +11 30 01.9 19.1 R 644 – Palomar Mountain/NEAT MPS 191938
2006 12 20.34560 04 41 50.55 +11 30 04.9 19.0 R 644 – Palomar Mountain/NEAT MPS 191938
2006 12 20.36598 04 41 49.52 +11 30 08.1 19.1 R 644 – Palomar Mountain/NEAT MPS 191938
2006 12 24.29169 04 38 46.17 +11 41 51.5 19.5 V 703 – Catalina Sky Survey MPS 191938
2006 12 24.29817 04 38 45.81 +11 41 53.4 19.2 V 703 – Catalina Sky Survey MPS 191938
2006 12 24.30463 04 38 45.49 +11 41 53.6 19.5 V 703 – Catalina Sky Survey MPS 191938
2006 12 24.31111 04 38 45.20 +11 41 54.3 18.9 V 703 – Catalina Sky Survey MPS 191938
2008 03 03.69969 13 09 27.64 +07 15 33.3 19.9 R D29 – Purple Mountain Observatory, XuYi Station MPS 240633
2008 03 03.71295 13 09 27.31 +07 15 39.6 20.0 R D29 – Purple Mountain Observatory, XuYi Station MPS 240633
2008 03 03.72787 13 09 26.88 +07 15 45.5 19.7 R D29 – Purple Mountain Observatory, XuYi Station MPS 240633
2008 03 03.74431 13 09 26.44 +07 15 52.4 19.9 R D29 – Purple Mountain Observatory, XuYi Station MPS 240633
2008 03 08.33448 13 07 17.25 +07 48 53.8 20.1   704 – Lincoln Laboratory ETS, New Mexico MPS 241999
2008 03 08.34581 13 07 16.87 +07 48 59.5 20.3   704 – Lincoln Laboratory ETS, New Mexico MPS 241999
2008 03 08.35709 13 07 16.50 +07 49 03.7 20.1   704 – Lincoln Laboratory ETS, New Mexico MPS 241999
2008 03 08.36842 13 07 16.20 +07 49 08.7 20.2   704 – Lincoln Laboratory ETS, New Mexico MPS 241999
2008 03 08.37980 13 07 15.88 +07 49 14.4 20.2   704 – Lincoln Laboratory ETS, New Mexico MPS 241999
2008 03 10.38350 13 06 11.73 +08 03 43.8 19.2 V G96 – Mt. Lemmon Survey MPS 241999
